カタログに戻る

COSMOS 1867 COOLANT

運用中LEO
NORAD 39669·DEBRIS·🇷🇺 Russia

打ち上げ Jul 10, 1987 から Baikonur Cosmodrome

Loading…

次のパス (今後24時間)

TLE

最新Source: Space-Track

元期: Sep 14, 2026, 14:46 UTC

1 39669U 87060AG  26257.61595785  .00000126  00000-0  80874-4 0  9992
2 39669  65.0120 119.0427 0018979 281.1897  78.7055 14.34030745649522

AllMySatでCOSMOS 1867 COOLANTをリアルタイム追跡

Download on the App Store